Simultaneous Nadir Overpasses (SNOs) Predictions

Prediction of SNOs between LANDSAT-8 and METOP-B Satellite Orbit:

Table of predicted SNOs for the next 14.0 days since TLE Epoch: 2/22/2014
Index Date (LANDSAT-8) Time (LANDSAT-8) Lat,Lon (LANDSAT-8) SZA (LANDSAT-8 ) Date (METOP-B) Time (METOP-B) Lat,Lon (METOP-B) SZA (METOP-B ) Distance(km) Time Diff (sec)
1 02/23/2014 03:37:22 81.08, 164.51 92.55 02/23/2014 03:37:12 81.08, 164.50 92.54 0.28 10
2 02/23/2014 04:26:48 -81.10, -27.60 87.43 02/23/2014 04:27:51 -81.09, -27.77 87.43 2.86 63
3 02/25/2014 22:22:09 -81.05, 62.90 88.53 02/25/2014 22:20:57 -81.05, 62.91 88.56 0.36 72
4 02/25/2014 23:11:34 81.08,-129.01 91.52 02/25/2014 23:11:36 81.09,-128.85 91.55 2.96 2
5 02/26/2014 00:00:25 -81.72, 52.54 86.63 02/26/2014 00:01:39 -81.35, 52.87 86.81 42.52 74
6
